FENGYUN 2G

Last updated on Sat Aug 15 2026 00:02:40 GMT+0000 (Coordinated Universal Time)

1 40367U 14090A 26226.58762807 -.00000317 00000+0 00000+0 0 9995 2 40367 5.7820 72.0913 0004407 171.7672 30.3434 1.00267718 42580
UTC large
Height (km)
Speed (km/s)
/
Latitude / Longitude
Inclination (degrees)
Orbital Period (minutes)
Azimuth
Elevation
Range (km)
Doppler Factor

Next 0 passes for location: London (51.5072 / 0.1276)

No passes found over London.
FENGYUN 2G